DELTA 1 DEB, 5443

Orbit data source: Space-Track

DELTA 1 DEB, 5443 is space debris in SSO originally from a launch on Fri, 10 Nov 1967 UTC launched from the Air Force Western Test Range (AFWTR). Debris objects in space refer to the collection of defunct objects orbiting the Earth. Examples of debris include non-operational satellites, rocket bodies, and fragments generated from explosions, collisions, or faulty payload assembly.

Loading next visibility...
Identifier
5443, 1967-114E
Orbit
SSO
Country
Flag of USUS
Related business
Manufacturer
Unknown
Mission
Spacecraft
Bus & Motor
Unknown
Mass
Unknown
Launch date (UTC)
1967-11-10 (58 years ago)
Launch vehicle
Unknown
Launch site
Air Force Western Test Range (AFWTR)
Object type
Payload
Rocket body
Debris
Shape & HBR
Unknown
Radar Cross Section
Small (<0.1 m²)

Expand to show TLE details & history
Last TLE update: 12 hours ago

TLE from 12 hours ago
0 DELTA 1 DEB
1 05443U 67114E   25258.40163771 -.00000012  00000-0  18500-3 0  9997
2 05443 101.3683 217.4190 0061718 206.5471 305.9878 12.56799339652739
Epoch: 2025-09-15T09:38Z
TLE epoch observation values (Epoch: 2025-09-15T09:38:21.498Z)
Latitude
27.48218°
Longitude
-95.80389°
Altitude
1,411.129 km
Speed
7.17 km/s
True Right ascension
02h 53m 34s
True Declination
27° 21' 12"
Sunlit
Object was in daylight at epoch
Visualization orbit readout
Latitude
Unknown
Longitude
Unknown
Altitude
Unknown
Speed
Unknown
Apparent Right ascension
Unknown
Apparent Declination
Unknown
Sunlit
N/A
Visualization observer readout
Local Sidereal Time
13:55:52
Azimuth
Unknown
Elevation
Unknown
Doppler factor
Unknown
Orbital elements
Apogee altitude
1,481.912 km
Perigee altitude
1,385.486 km
Semi-major axis
7,811.836 km
Eccentricity
0.00617
Inclination
101.3683°
RAAN
217.419°
Arg. of periapsis
206.5471°
True anomaly
305.41295°
Mean anomaly
305.9878°
Eccentric anomaly
305.70063°
Mean motion
3.1435 °/min
Orbital period
114.52 mins
BSTAR
0.000185
Loading maneuver chart data...
Computing Atmospheric mass density...
Loading historical data...
Loading historical data...
Loading historical data...
Loading historical data...
Loading historical data...
Loading historical data...
Loading historical data...
Other satellites on launch #114 in the year 1967 (1967-11-10 UTC)

Documentation

Showing up to 5 results
|